Time,TemperatureF,DewpointF,PressureIn,WindDirection,WindDirectionDegrees,WindSpeedMPH,WindSpeedGustMPH,Humidity,HourlyPrecipIn,Conditions,Clouds,dailyrainin,SoftwareType,DateUTC
2013-01-20 00:02:00,49.9,40.3,30.09,SE,135,0.0,0.0,70,0.00,,,0.00,WSDL version 420,2013-01-20 05:02:00,
2013-01-20 00:12:00,49.9,40.5,30.09,SE,135,0.0,0.0,70,0.00,,,0.00,WSDL version 420,2013-01-20 05:12:00,
2013-01-20 00:22:00,50.0,40.6,30.09,SE,135,0.0,0.0,70,0.00,,,0.00,WSDL version 420,2013-01-20 05:22:00,
2013-01-20 00:32:00,49.8,40.8,30.09,SE,135,0.0,0.0,71,0.00,,,0.00,WSDL version 420,2013-01-20 05:32:00,
2013-01-20 00:42:00,49.6,40.2,30.09,SE,135,0.0,0.0,70,0.00,,,0.00,WSDL version 420,2013-01-20 05:42:00,
2013-01-20 00:52:00,49.1,39.8,30.09,SE,135,0.0,0.0,70,0.00,,,0.00,WSDL version 420,2013-01-20 05:52:00,
2013-01-20 01:02:00,48.7,39.8,30.09,SE,135,0.0,0.0,71,0.00,,,0.00,WSDL version 420,2013-01-20 06:02:00,
2013-01-20 01:12:00,48.7,40.1,30.09,SE,135,0.0,0.0,72,0.00,,,0.00,WSDL version 420,2013-01-20 06:12:00,
2013-01-20 01:22:00,48.7,40.1,30.09,SE,135,0.0,0.0,72,0.00,,,0.00,WSDL version 420,2013-01-20 06:22:00,
2013-01-20 01:32:00,48.7,40.1,30.09,SE,135,0.0,0.0,72,0.00,,,0.00,WSDL version 420,2013-01-20 06:32:00,
2013-01-20 01:42:00,48.6,40.0,30.09,SE,135,0.0,0.0,72,0.00,,,0.00,WSDL version 420,2013-01-20 06:42:00,
2013-01-20 01:52:00,48.4,39.8,30.09,SE,135,0.0,0.0,72,0.00,,,0.00,WSDL version 420,2013-01-20 06:52:00,
2013-01-20 02:02:00,48.2,39.4,30.09,SE,135,0.0,0.0,72,0.00,,,0.00,WSDL version 420,2013-01-20 07:02:00,
2013-01-20 02:12:00,48.0,39.4,30.09,SE,135,0.0,0.0,72,0.00,,,0.00,WSDL version 420,2013-01-20 07:12:00,
2013-01-20 02:22:00,47.8,39.2,30.09,SE,135,0.0,0.0,72,0.00,,,0.00,WSDL version 420,2013-01-20 07:22:00,
2013-01-20 02:32:00,47.5,39.1,30.09,SE,135,0.0,0.0,73,0.00,,,0.00,WSDL version 420,2013-01-20 07:32:00,
2013-01-20 02:42:00,47.3,38.8,30.09,SE,135,0.0,0.0,72,0.00,,,0.00,WSDL version 420,2013-01-20 07:42:00,
2013-01-20 02:52:00,47.1,38.6,30.09,SE,135,0.0,0.0,72,0.00,,,0.00,WSDL version 420,2013-01-20 07:52:00,
2013-01-20 03:02:00,47.1,38.7,30.09,SE,135,0.0,0.0,73,0.00,,,0.00,WSDL version 420,2013-01-20 08:02:00,
2013-01-20 03:12:00,47.0,38.8,30.09,SE,135,0.0,0.0,73,0.00,,,0.00,WSDL version 420,2013-01-20 08:12:00,
2013-01-20 03:22:00,47.1,38.9,30.09,SE,135,0.0,0.0,73,0.00,,,0.00,WSDL version 420,2013-01-20 08:22:00,
2013-01-20 03:32:00,47.1,38.9,30.09,SE,135,0.0,0.0,73,0.00,,,0.00,WSDL version 420,2013-01-20 08:32:00,
2013-01-20 03:42:00,47.3,39.4,30.09,SE,135,0.0,0.0,74,0.00,,,0.00,WSDL version 420,2013-01-20 08:42:00,
2013-01-20 03:52:00,47.6,40.0,30.09,SE,135,0.0,0.0,75,0.00,,,0.00,WSDL version 420,2013-01-20 08:52:00,
2013-01-20 04:02:00,47.8,40.3,30.09,SE,135,0.0,0.0,75,0.00,,,0.00,WSDL version 420,2013-01-20 09:02:00,
2013-01-20 04:12:00,48.2,40.6,30.06,SE,135,0.0,0.0,75,0.00,,,0.00,WSDL version 420,2013-01-20 09:12:00,
2013-01-20 04:22:00,48.5,41.1,30.06,SSW,195,0.0,0.0,76,0.00,,,0.00,WSDL version 420,2013-01-20 09:22:00,
2013-01-20 04:32:00,48.7,41.5,30.06,NW,315,0.0,1.3,76,0.00,,,0.00,WSDL version 420,2013-01-20 09:32:00,
2013-01-20 04:42:00,49.0,41.7,30.06,NW,315,0.0,0.0,76,0.00,,,0.00,WSDL version 420,2013-01-20 09:42:00,
2013-01-20 04:52:00,49.3,42.4,30.06,NW,315,0.0,0.0,77,0.00,,,0.00,WSDL version 420,2013-01-20 09:52:00,
2013-01-20 05:02:00,49.5,42.6,30.06,NW,315,0.0,0.0,77,0.00,,,0.00,WSDL version 420,2013-01-20 10:02:00,
2013-01-20 05:12:00,49.6,42.7,30.06,NW,315,0.0,0.0,77,0.00,,,0.00,WSDL version 420,2013-01-20 10:12:00,
2013-01-20 05:22:00,49.7,42.8,30.06,NW,315,0.0,0.0,77,0.00,,,0.00,WSDL version 420,2013-01-20 10:22:00,
2013-01-20 05:32:00,49.8,42.9,30.06,NW,315,0.0,0.0,77,0.00,,,0.00,WSDL version 420,2013-01-20 10:32:00,
2013-01-20 05:42:00,50.0,42.9,30.06,NW,315,0.0,0.0,77,0.00,,,0.00,WSDL version 420,2013-01-20 10:42:00,
2013-01-20 05:52:00,49.8,43.2,30.06,West,270,0.0,2.5,78,0.00,,,0.00,WSDL version 420,2013-01-20 10:52:00,
2013-01-20 06:02:00,49.8,43.6,30.06,West,270,0.0,0.0,79,0.00,,,0.00,WSDL version 420,2013-01-20 11:02:00,
2013-01-20 06:12:00,49.6,43.1,30.06,NW,315,0.0,1.6,78,0.00,,,0.00,WSDL version 420,2013-01-20 11:12:00,
2013-01-20 06:22:00,49.5,42.9,30.06,WNW,293,0.0,0.0,78,0.00,,,0.00,WSDL version 420,2013-01-20 11:22:00,
2013-01-20 06:32:00,49.3,42.4,30.06,WNW,293,0.0,0.0,77,0.00,,,0.00,WSDL version 420,2013-01-20 11:32:00,
2013-01-20 06:42:00,48.9,41.7,30.06,WNW,293,0.0,0.0,76,0.00,,,0.00,WSDL version 420,2013-01-20 11:42:00,
2013-01-20 06:52:00,48.7,41.5,30.06,WNW,293,0.0,0.0,76,0.00,,,0.00,WSDL version 420,2013-01-20 11:52:00,
2013-01-20 07:02:00,48.3,41.1,30.06,WNW,293,0.0,0.0,75,0.00,,,0.00,WSDL version 420,2013-01-20 12:02:00,
2013-01-20 07:12:00,47.9,40.7,30.06,WNW,293,0.0,0.0,76,0.00,,,0.00,WSDL version 420,2013-01-20 12:12:00,
2013-01-20 07:22:00,47.5,40.3,30.06,WNW,293,0.0,0.0,76,0.00,,,0.00,WSDL version 420,2013-01-20 12:22:00,
2013-01-20 07:32:00,47.3,40.1,30.06,WNW,293,0.0,0.0,76,0.00,,,0.00,WSDL version 420,2013-01-20 12:32:00,
2013-01-20 07:42:00,47.2,40.0,30.06,WNW,293,0.0,0.0,76,0.00,,,0.00,WSDL version 420,2013-01-20 12:42:00,
2013-01-20 07:52:00,47.1,40.0,30.06,WNW,293,0.0,0.0,76,0.00,,,0.00,WSDL version 420,2013-01-20 12:52:00,
2013-01-20 08:02:00,47.1,40.0,30.06,WNW,293,0.0,0.0,76,0.00,,,0.00,WSDL version 420,2013-01-20 13:02:00,
2013-01-20 08:12:00,47.5,40.4,30.06,NW,315,0.0,0.0,77,0.00,,,0.00,WSDL version 420,2013-01-20 13:12:00,
2013-01-20 08:22:00,48.7,42.1,30.06,NW,315,0.0,2.9,78,0.00,,,0.00,WSDL version 420,2013-01-20 13:22:00,
2013-01-20 08:32:00,50.0,43.5,30.06,NW,315,0.0,1.6,78,0.00,,,0.00,WSDL version 420,2013-01-20 13:32:00,
2013-01-20 08:42:00,50.5,43.9,30.06,NNW,338,0.0,0.0,77,0.00,,,0.00,WSDL version 420,2013-01-20 13:42:00,
2013-01-20 08:52:00,51.1,44.0,30.06,SW,225,0.9,1.6,76,0.00,,,0.00,WSDL version 420,2013-01-20 13:52:00,
2013-01-20 09:02:00,52.0,44.5,30.06,SSW,203,1.1,2.0,75,0.00,,,0.00,WSDL version 420,2013-01-20 14:02:00,
2013-01-20 09:12:00,52.9,45.2,30.09,SSW,208,1.8,2.5,75,0.00,,,0.00,WSDL version 420,2013-01-20 14:12:00,
2013-01-20 09:22:00,53.5,45.3,30.09,SW,220,1.4,2.7,73,0.00,,,0.00,WSDL version 420,2013-01-20 14:22:00,
2013-01-20 09:32:00,54.4,45.9,30.12,SW,214,0.6,2.5,73,0.00,,,0.00,WSDL version 420,2013-01-20 14:32:00,
2013-01-20 09:42:00,55.8,46.6,30.12,SSW,205,2.0,3.1,70,0.00,,,0.00,WSDL version 420,2013-01-20 14:42:00,
2013-01-20 09:52:00,57.0,47.1,30.12,SSW,205,1.4,2.9,69,0.00,,,0.00,WSDL version 420,2013-01-20 14:52:00,
2013-01-20 10:02:00,58.6,46.5,30.09,South,186,1.8,2.9,62,0.00,,,0.00,WSDL version 420,2013-01-20 15:02:00,
2013-01-20 10:12:00,60.9,46.3,30.12,SSW,203,1.5,3.1,58,0.00,,,0.00,WSDL version 420,2013-01-20 15:12:00,
2013-01-20 10:22:00,64.7,44.7,30.12,SE,135,2.6,3.6,47,0.00,,,0.00,WSDL version 420,2013-01-20 15:22:00,
2013-01-20 10:32:00,69.4,46.4,30.12,SSE,163,2.6,3.1,42,0.00,,,0.00,WSDL version 420,2013-01-20 15:32:00,
2013-01-20 10:42:00,72.5,43.8,30.12,WSW,243,2.0,2.9,35,0.00,,,0.00,WSDL version 420,2013-01-20 15:42:00,
2013-01-20 10:52:00,75.0,44.2,30.12,NW,315,1.0,2.9,33,0.00,,,0.00,WSDL version 420,2013-01-20 15:52:00,
2013-01-20 11:02:00,76.6,44.6,30.12,North,354,1.8,3.4,32,0.00,,,0.00,WSDL version 420,2013-01-20 16:02:00,
2013-01-20 11:12:00,77.5,44.6,30.12,NNW,338,2.9,4.7,31,0.00,,,0.00,WSDL version 420,2013-01-20 16:12:00,
2013-01-20 11:22:00,76.5,43.6,30.12,NW,315,1.6,4.3,31,0.00,,,0.00,WSDL version 420,2013-01-20 16:22:00,
2013-01-20 11:32:00,76.6,43.7,30.12,NNW,328,1.4,3.6,31,0.00,,,0.00,WSDL version 420,2013-01-20 16:32:00,
2013-01-20 11:42:00,77.2,43.2,30.09,NW,318,2.1,3.4,30,0.00,,,0.00,WSDL version 420,2013-01-20 16:42:00,
2013-01-20 11:52:00,78.0,44.1,30.09,NW,326,2.0,3.6,30,0.00,,,0.00,WSDL version 420,2013-01-20 16:52:00,
2013-01-20 12:02:00,77.9,43.4,30.09,NW,321,0.6,3.4,29,0.00,,,0.00,WSDL version 420,2013-01-20 17:02:00,
2013-01-20 12:12:00,77.2,41.6,30.06,West,281,0.1,3.1,28,0.00,,,0.00,WSDL version 420,2013-01-20 17:12:00,
2013-01-20 12:22:00,76.9,41.1,30.06,NNW,346,1.7,3.4,27,0.00,,,0.00,WSDL version 420,2013-01-20 17:22:00,
2013-01-20 12:32:00,76.0,40.5,30.06,NW,326,2.0,3.6,28,0.00,,,0.00,WSDL version 420,2013-01-20 17:32:00,
2013-01-20 12:42:00,75.3,40.0,30.03,NW,315,2.1,4.7,28,0.00,,,0.00,WSDL version 420,2013-01-20 17:42:00,
2013-01-20 12:52:00,73.2,38.7,30.03,ENE,68,1.2,3.8,29,0.00,,,0.00,WSDL version 420,2013-01-20 17:52:00,
2013-01-20 13:02:00,71.9,37.4,30.03,North,358,1.8,4.0,29,0.00,,,0.00,WSDL version 420,2013-01-20 18:02:00,
2013-01-20 13:12:00,71.1,37.8,30.00,NNE,25,1.4,3.4,30,0.00,,,0.00,WSDL version 420,2013-01-20 18:12:00,
2013-01-20 13:22:00,71.0,38.7,30.00,NW,323,2.5,4.0,31,0.00,,,0.00,WSDL version 420,2013-01-20 18:22:00,
2013-01-20 13:32:00,70.6,38.0,30.00,WNW,288,1.6,4.3,30,0.00,,,0.00,WSDL version 420,2013-01-20 18:32:00,
2013-01-20 13:42:00,70.2,37.3,30.00,North,5,1.8,6.5,30,0.00,,,0.00,WSDL version 420,2013-01-20 18:42:00,
2013-01-20 13:52:00,70.1,37.5,30.00,NNW,344,1.4,3.6,30,0.00,,,0.00,WSDL version 420,2013-01-20 18:52:00,
2013-01-20 14:02:00,69.7,37.4,30.00,West,273,1.9,4.3,31,0.00,,,0.00,WSDL version 420,2013-01-20 19:02:00,
2013-01-20 14:12:00,69.8,37.6,29.97,SSW,210,4.0,8.1,30,0.00,,,0.00,WSDL version 420,2013-01-20 19:12:00,
2013-01-20 14:22:00,69.9,37.1,29.97,WSW,248,2.5,6.3,30,0.00,,,0.00,WSDL version 420,2013-01-20 19:22:00,
2013-01-20 14:32:00,70.5,38.1,29.97,NNW,328,1.6,3.6,31,0.00,,,0.00,WSDL version 420,2013-01-20 19:32:00,
2013-01-20 14:42:00,70.9,37.8,29.97,West,259,2.8,4.7,29,0.00,,,0.00,WSDL version 420,2013-01-20 19:42:00,
2013-01-20 14:52:00,71.4,38.1,29.97,WNW,300,2.4,4.7,30,0.00,,,0.00,WSDL version 420,2013-01-20 19:52:00,
2013-01-20 15:02:00,71.4,37.5,29.97,WSW,250,1.6,4.0,29,0.00,,,0.00,WSDL version 420,2013-01-20 20:02:00,
2013-01-20 15:12:00,71.6,37.7,29.97,WSW,238,1.6,4.0,29,0.00,,,0.00,WSDL version 420,2013-01-20 20:12:00,
2013-01-20 15:22:00,71.2,37.4,29.97,WNW,300,1.6,3.1,29,0.00,,,0.00,WSDL version 420,2013-01-20 20:22:00,
2013-01-20 15:32:00,70.7,37.0,29.97,NW,325,1.8,3.8,29,0.00,,,0.00,WSDL version 420,2013-01-20 20:32:00,
2013-01-20 15:42:00,70.2,36.2,29.97,WSW,248,1.8,3.8,29,0.00,,,0.00,WSDL version 420,2013-01-20 20:42:00,
2013-01-20 15:52:00,69.7,36.2,29.97,NNW,335,1.2,3.4,30,0.00,,,0.00,WSDL version 420,2013-01-20 20:52:00,
2013-01-20 16:02:00,69.3,36.1,29.97,WSW,248,2.1,4.3,29,0.00,,,0.00,WSDL version 420,2013-01-20 21:02:00,
2013-01-20 16:12:00,69.0,36.3,29.97,WNW,293,1.2,3.6,30,0.00,,,0.00,WSDL version 420,2013-01-20 21:12:00,
2013-01-20 16:22:00,68.5,35.9,29.97,NW,326,1.3,2.5,30,0.00,,,0.00,WSDL version 420,2013-01-20 21:22:00,
2013-01-20 16:32:00,68.4,35.8,29.97,SW,223,1.3,4.3,30,0.00,,,0.00,WSDL version 420,2013-01-20 21:32:00,
2013-01-20 16:42:00,68.0,35.6,29.97,North,350,1.3,2.5,31,0.00,,,0.00,WSDL version 420,2013-01-20 21:42:00,
2013-01-20 16:52:00,67.5,35.9,29.97,NW,315,0.0,1.6,31,0.00,,,0.00,WSDL version 420,2013-01-20 21:52:00,
2013-01-20 17:02:00,67.1,35.5,29.97,NE,45,0.4,2.2,31,0.00,,,0.00,WSDL version 420,2013-01-20 22:02:00,
2013-01-20 17:12:00,66.5,35.8,29.97,West,275,0.0,1.1,32,0.00,,,0.00,WSDL version 420,2013-01-20 22:12:00,
2013-01-20 17:22:00,65.8,35.9,29.97,NW,315,0.0,0.9,33,0.00,,,0.00,WSDL version 420,2013-01-20 22:22:00,
2013-01-20 17:32:00,64.9,35.1,29.97,NW,315,0.0,2.0,33,0.00,,,0.00,WSDL version 420,2013-01-20 22:32:00,
2013-01-20 17:42:00,64.1,35.2,29.97,NW,315,0.0,0.0,34,0.00,,,0.00,WSDL version 420,2013-01-20 22:42:00,
2013-01-20 17:52:00,63.4,34.6,29.97,NW,315,0.0,0.0,34,0.00,,,0.00,WSDL version 420,2013-01-20 22:52:00,
2013-01-20 18:04:00,62.4,34.4,29.97,NW,315,0.0,0.0,35,0.00,,,0.00,WSDL version 420,2013-01-20 23:04:00,
2013-01-20 18:14:00,61.6,34.4,29.97,NW,315,0.0,0.0,36,0.00,,,0.00,WSDL version 420,2013-01-20 23:14:00,
2013-01-20 18:24:00,60.7,34.5,29.97,NW,315,0.0,0.0,38,0.00,,,0.00,WSDL version 420,2013-01-20 23:24:00,
2013-01-20 18:34:00,60.0,34.9,29.97,NW,315,0.0,0.0,39,0.00,,,0.00,WSDL version 420,2013-01-20 23:34:00,
2013-01-20 18:44:00,59.2,34.9,29.97,NW,315,0.0,0.0,40,0.00,,,0.00,WSDL version 420,2013-01-20 23:44:00,
2013-01-20 18:54:00,58.4,35.0,29.97,NW,315,0.0,0.0,42,0.00,,,0.00,WSDL version 420,2013-01-20 23:54:00,
2013-01-20 19:04:00,58.0,35.4,29.97,NW,315,0.0,0.0,43,0.00,,,0.00,WSDL version 420,2013-01-21 00:04:00,
2013-01-20 19:14:00,57.4,35.7,29.97,NW,315,0.0,0.0,44,0.00,,,0.00,WSDL version 420,2013-01-21 00:14:00,
2013-01-20 19:24:00,56.8,35.8,29.97,NW,315,0.0,0.0,46,0.00,,,0.00,WSDL version 420,2013-01-21 00:24:00,
2013-01-20 19:34:00,56.2,35.7,29.97,NW,315,0.0,0.0,46,0.00,,,0.00,WSDL version 420,2013-01-21 00:34:00,
2013-01-20 19:44:00,55.4,35.5,29.97,NW,315,0.0,0.0,47,0.00,,,0.00,WSDL version 420,2013-01-21 00:44:00,
2013-01-20 19:54:00,55.0,35.7,29.97,NW,315,0.0,0.0,48,0.00,,,0.00,WSDL version 420,2013-01-21 00:54:00,
2013-01-20 20:04:00,54.5,35.8,29.97,NW,315,0.0,0.0,49,0.00,,,0.00,WSDL version 420,2013-01-21 01:04:00,
2013-01-20 20:14:00,54.2,36.0,29.97,NW,315,0.0,0.0,50,0.00,,,0.00,WSDL version 420,2013-01-21 01:14:00,
2013-01-20 20:24:00,53.4,35.6,29.97,NW,315,0.0,0.0,51,0.00,,,0.00,WSDL version 420,2013-01-21 01:24:00,
2013-01-20 20:34:00,52.8,35.7,29.97,NW,315,0.0,0.0,52,0.00,,,0.00,WSDL version 420,2013-01-21 01:34:00,
2013-01-20 20:44:00,52.3,36.0,29.97,NW,315,0.0,0.0,54,0.00,,,0.00,WSDL version 420,2013-01-21 01:44:00,
2013-01-20 20:54:00,51.9,35.8,29.97,NW,315,0.0,0.0,54,0.00,,,0.00,WSDL version 420,2013-01-21 01:54:00,
2013-01-20 21:04:00,51.6,36.0,29.97,NW,315,0.0,0.0,55,0.00,,,0.00,WSDL version 420,2013-01-21 02:04:00,
2013-01-20 21:14:00,51.2,36.1,29.97,NW,305,0.0,0.0,56,0.00,,,0.00,WSDL version 420,2013-01-21 02:14:00,
2013-01-20 21:24:00,50.7,36.1,29.97,WNW,293,0.0,0.0,57,0.00,,,0.00,WSDL version 420,2013-01-21 02:24:00,
2013-01-20 21:34:00,50.2,35.7,29.97,WNW,293,0.0,0.0,58,0.00,,,0.00,WSDL version 420,2013-01-21 02:34:00,
2013-01-20 21:44:00,49.7,35.6,29.97,WNW,293,0.0,0.0,59,0.00,,,0.00,WSDL version 420,2013-01-21 02:44:00,
2013-01-20 21:54:00,49.5,36.2,29.97,WNW,293,0.0,0.0,60,0.00,,,0.00,WSDL version 420,2013-01-21 02:54:00,
2013-01-20 22:04:00,49.2,36.0,29.97,WNW,293,0.0,0.0,60,0.00,,,0.00,WSDL version 420,2013-01-21 03:04:00,
2013-01-20 22:14:00,48.7,36.3,29.97,WNW,293,0.0,0.0,62,0.00,,,0.00,WSDL version 420,2013-01-21 03:14:00,
2013-01-20 22:24:00,48.5,36.1,29.97,WNW,293,0.0,0.0,62,0.00,,,0.00,WSDL version 420,2013-01-21 03:24:00,
2013-01-20 22:34:00,48.3,36.2,29.97,WNW,293,0.0,0.0,63,0.00,,,0.00,WSDL version 420,2013-01-21 03:34:00,
2013-01-20 22:44:00,47.9,36.0,29.97,WNW,293,0.0,0.0,63,0.00,,,0.00,WSDL version 420,2013-01-21 03:44:00,
2013-01-20 22:54:00,47.5,35.9,29.97,WNW,293,0.0,0.0,64,0.00,,,0.00,WSDL version 420,2013-01-21 03:54:00,
2013-01-20 23:04:00,47.4,35.9,29.97,WNW,293,0.0,0.0,64,0.00,,,0.00,WSDL version 420,2013-01-21 04:04:00,
2013-01-20 23:14:00,47.3,35.8,29.97,WNW,293,0.0,0.0,64,0.00,,,0.00,WSDL version 420,2013-01-21 04:14:00,
2013-01-20 23:24:00,46.9,35.8,29.97,WNW,293,0.0,0.0,65,0.00,,,0.00,WSDL version 420,2013-01-21 04:24:00,
2013-01-20 23:34:00,46.6,35.4,29.97,WNW,293,0.0,0.0,65,0.00,,,0.00,WSDL version 420,2013-01-21 04:34:00,
2013-01-20 23:44:00,46.3,35.2,29.94,WNW,293,0.0,0.0,65,0.00,,,0.00,WSDL version 420,2013-01-21 04:44:00,
2013-01-20 23:54:00,46.3,35.5,29.94,WNW,293,0.0,0.0,66,0.00,,,0.00,WSDL version 420,2013-01-21 04:54:00,